Back to catalog

THORAD AGENA D DEB

AliveVLEO
NORAD 4435·DEBRIS·🇺🇸 United States

Launched Sep 30, 1969 from Vandenberg Space Force Base

Loading…

Next Passes (next 24 hours)

TLE

FreshSource: Space-Track

Epoch: Sep 13, 2026, 23:42 UTC

1 04435U 69082EG  26256.98766367  .00007582  00000-0  69493-3 0  9990
2 04435  70.0091 104.4225 0010210 100.9416 259.2891 14.95228835980402

Track THORAD AGENA D DEB in real time with AllMySat

Download on the App Store